Location: Mannheim
(49.4880°N, 8.4650°E)
Time: 05:19:32
(UTC+02:00)

ISS - Pass Details

Date: 16 September 2018
Orbit: 403 x 408 km, 51.6° (Epoch: 25 September)

Event Time Altitude Azimuth Distance (km) Brightness Sun altitude
Exits shadow 04:10:31 12° 103° (ESE) 1,333 -0.8 -26.3°
Drops below altitude 10° 04:10:49 10° 104° (ESE) 1,461 -0.6 -26.3°
Sets 04:12:54 0° 105° (ESE) 2,319 0.5 -26.1°
